Location: Elstree
(51.6403°N, 0.2969°W)
Time: 16:25:07
(UTC+00:00)

Cosmos 1536 - Pass Details

Date: 03 March 2021
Orbit: 541 x 557 km, 82.5° (Epoch: 17 April)

Event Time Altitude Azimuth Distance (km) Brightness Sun altitude
Exits shadow 19:46:11 23° 37° (NE) 1,199 4.3 -19.4°
Drops below altitude 10° 19:47:55 10° 23° (NNE) 1,824 5.4 -19.7°
Sets 19:50:10 0° 17° (NNE) 2,720 6.4 -20.0°
